Location: Casco Volunteer Fire Department
(44.5576°N, 87.6146°W)
Time: 04:56:28
(UTC+00:00)

CBERS-1 - Pass Details

Date: 22 January 2026
Orbit: 765 x 772 km, 98.9° (Epoch: 11 February)

Event Time Altitude Azimuth Distance (km) Brightness Sun altitude
Rises 12:43:42 0° 7° (N) 3,244 7.1 -6.5°
Reaches altitude 10° 12:46:07 10° 360° (N) 2,314 6.3 -6.1°
Maximum altitude 12:50:50 40° 292° (WNW) 1,132 4.4 -5.4°
Drops below altitude 10° 12:55:32 10° 225° (SW) 2,302 6.3 -4.6°
Sets 12:57:56 0° 218° (SW) 3,226 7.1 -4.2°
